Regional Weather Roundup
Issued by NWS Sioux Falls, SD

Home | Current Version | Previous Version | Text Only | Print | Product List | Glossary On
Versions: 1 2 3 4 5 6 7 8 9 10 11 12 13 14 15 16 17 18 19 20 21 22 23 24 25 26 27 28 29 30 31 32 33 34 35 36 37 38 39 40 41 42 43 44 45 46 47 48 49 50
000
ASUS43 KFSD 290510
RWRFSD

WEATHER ROUNDUP FOR SE SOUTH DAKOTA/SW MINNESOTA/NW IOWA
NATIONAL WEATHER SERVICE SIOUX FALLS SD
1200 AM CDT THU SEP 29 2016

NOTE: "FAIR" INDICATES FEW OR NO CLOUDS BELOW 12,000 FEET WITH NO
SIGNIFICANT WEATHER AND OR OBSTRUCTIONS TO VISIBILITY.


SDZ038>040-050-052>070-290600-
SOUTHEAST SOUTH DAKOTA

CITY           SKY/WX    TMP DP  RH WIND       PRES   REMARKS
BROOKINGS      CLEAR     42  41  96 CALM      30.39R
CHAMBERLAIN    CLEAR     49  45  86 E5        30.38R
HURON          CLEAR     47  45  93 E3        30.39R
MADISON        FAIR      43  43 100 N6        30.40R
MITCHELL       CLOUDY    47  43  86 CALM      30.39R
SIOUX FALLS    CLEAR     46  44  93 CALM      30.39R
WINNER         FAIR      48  42  80 SE7       30.37S
YANKTON        CLEAR     46  43  87 CALM      30.37R
$$

MNZ071-072-080-081-089-090-097-098-290600-
SOUTHWEST MINNESOTA

CITY           SKY/WX    TMP DP  RH WIND       PRES   REMARKS
FAIRMONT       CLEAR     48  46  93 N6        30.36S
JACKSON        CLEAR     46  43  87 N6        30.37S
LUVERNE        CLEAR     45  43  93 N3        30.38S
MARSHALL       CLEAR     44  43  96 NW5       30.40R
MONTEVIDEO     CLEAR     45  43  93 E6        30.41S
PIPESTONE      CLEAR     46  43  87 CALM      30.38R
REDWOOD FALLS  CLEAR     53  46  77 CALM      30.38R
TRACY          CLEAR     46  44  93 CALM      30.39R
WINDOM         CLEAR     48  46  93 N6        30.38R
WORTHINGTON    CLEAR     46  44  93 N5        30.39R
$$

IAZ001>003-012>014-020>022-031-032-NEZ013-014-SDZ071-290600-
NORTHWEST IOWA

CITY           SKY/WX    TMP DP  RH WIND       PRES   REMARKS
CHEROKEE       CLEAR     46  46  99 CALM      30.36S
DENISON        CLEAR     48  46  93 N6        30.32S FOG
ESTHERVILLE    CLEAR     46  46 100 N6        30.36R
LE MARS        CLEAR     45  45 100 CALM      30.38R
ORANGE CITY    CLEAR     52  46  82 NE5       30.37R
SHELDON        CLEAR     43  43 100 NE3       30.36R
SIOUX CITY     CLEAR     47  45  93 NW5       30.37R
SPENCER        CLEAR     48  46  93 N5        30.37R
STORM LAKE     CLEAR     48  46  93 N7        30.36R
$$

ABBREVIATIONS USED IN REMARKS
   TC - TEMPERATURE IN CELSIUS
  WCI - WIND CHILL INDEX
   HX - HEAT INDEX
  VSB - VISIBILITY





USA.gov is the U.S. government's official web portal to all federal, state and local government web resources and services.